Wind_Speed
16 16 16 16 16 16 16 16 16 16 16 16 18 18 17 17 18 18 18 18 17 16 15 14 14 14 14 15 15 16 17 18 18 17 17 17 18 18 19 19 20 20 21 22 22 21 20 20 19 19 19 18 18 18 18 19 19 19 19 18 18 17 17 16 16 15 14 14 14 14 15 15 17 18 19 20 20 21 23 23 24 24 24 24 24
15 15 15 15 15 15 16 16 16 16 16 17 18 18 18 17 18 18 19 18 18 17 16 15 14 14 14 15 15 15 17 18 17 17 17 18 18 19 20 20 20 21 21 21 21 20 19 18 18 17 17 17 18 18 18 18 19 19 18 18 17 17 16 15 14 13 13 13 14 14 15 16 18 19 19 20 21 22 23 23 23 23 23 24 24
14 14 14 14 14 15 15 15 16 16 16 17 18 18 18 17 17 18 18 18 18 18 17 16 15 15 15 15 14 15 17 18 17 18 18 19 19 20 20 20 21 21 21 20 19 18 17 16 16 16 16 17 17 17 18 18 18 18 18 17 16 15 15 14 13 13 13 13 14 15 15 17 18 19 20 20 21 22 22 22 23 23 24 24 24
12 13 13 13 14 14 14 15 15 16 16 17 17 17 17 17 17 17 17 18 18 19 19 18 17 16 16 15 15 15 17 18 18 19 19 19 20 20 20 20 20 20 19 19 18 17 16 15 15 16 16 16 16 17 17 17 17 17 17 16 15 14 14 13 13 13 14 14 15 16 17 18 19 19 20 20 21 21 22 22 23 24 24 25 25
11 12 12 12 13 13 13 14 15 15 15 16 17 16 16 16 16 16 16 17 18 18 19 19 18 17 17 17 17 16 17 18 19 19 19 19 19 19 19 19 19 19 18 17 16 15 15 15 15 15 15 15 16 16 16 16 17 16 16 15 14 13 13 13 13 13 14 15 16 17 18 19 19 19 20 20 21 22 22 23 23 24 25 25 25
10 10 11 12 12 12 13 13 14 15 15 15 15 15 15 15 15 16 16 16 17 18 19 19 19 18 18 18 18 17 18 19 19 19 18 18 18 18 18 18 18 18 17 16 15 15 14 14 14 14 14 15 15 15 15 16 16 15 15 14 13 13 12 13 13 14 15 16 17 18 19 19 19 20 20 21 21 22 23 23 24 25 25 26 25
9 9 11 12 12 12 12 13 14 14 14 14 14 14 14 15 15 16 16 15 15 16 17 18 18 18 18 18 18 18 18 18 19 19 18 17 17 17 17 17 17 17 16 15 14 14 14 14 14 14 14 14 15 15 15 15 15 15 14 13 13 13 13 14 14 15 16 17 18 19 19 19 19 20 20 21 22 22 23 24 25 25 25 26 26
8 8 10 12 12 12 12 12 13 13 13 13 13 13 13 14 15 15 15 16 15 15 16 17 17 17 16 16 17 16 16 17 18 18 17 17 16 16 17 16 16 15 15 14 14 14 14 14 14 14 14 14 15 15 15 15 15 14 14 14 14 14 14 15 16 17 18 19 19 19 19 19 19 20 20 21 22 22 24 24 25 25 26 26 27
7 8 10 11 12 12 12 12 13 12 12 12 12 12 12 13 14 14 15 16 16 16 16 17 17 17 15 15 14 14 15 15 16 16 16 16 16 16 16 16 15 14 14 14 13 14 14 14 14 14 14 14 15 15 15 15 15 15 15 15 15 15 16 16 17 19 19 19 19 18 18 19 19 20 21 22 22 23 24 25 25 26 27 27 28
8 8 10 11 11 11 12 12 12 12 12 11 11 12 12 13 13 14 14 15 16 16 17 17 16 16 15 14 14 13 13 14 14 14 14 14 14 15 15 14 14 13 13 13 13 14 14 15 15 14 14 14 15 15 15 15 15 15 15 15 15 16 17 18 19 19 19 19 18 18 18 19 20 21 22 23 24 24 25 25 26 26 27 28 28
8 9 10 11 11 11 12 12 12 13 13 12 11 11 12 12 13 14 14 14 15 15 16 15 15 14 14 14 13 13 13 12 13 13 12 12 12 12 13 13 12 12 12 13 13 14 15 15 15 15 15 15 15 15 15 15 15 16 16 16 17 18 19 19 19 19 18 18 18 18 19 20 22 23 23 24 24 25 25 25 26 27 27 27 27
8 9 10 11 11 12 13 13 13 13 13 12 12 11 11 11 12 12 13 13 13 13 14 13 13 13 13 12 12 12 12 12 12 12 12 11 11 11 12 12 11 11 11 12 13 14 14 14 15 15 15 15 15 16 16 17 17 18 19 19 20 20 20 19 19 18 18 18 18 19 21 22 23 24 24 24 24 24 25 26 26 26 26 26 25
9 10 11 11 11 11 13 13 13 12 12 12 12 11 11 10 11 11 11 11 12 12 12 11 11 11 11 11 11 11 10 11 11 11 11 11 11 10 10 11 11 10 11 12 12 13 14 14 14 15 15 15 15 16 17 18 19 20 21 21 20 20 19 19 18 18 18 19 20 21 23 24 24 25 25 24 24 25 25 25 25 25 25 25 25
9 10 11 11 11 12 13 13 13 13 12 12 11 11 11 10 10 10 10 9 9 10 10 10 10 10 10 10 10 9 9 10 10 10 11 12 11 10 9 10 10 10 11 12 12 13 13 13 14 14 14 15 15 16 18 19 20 20 20 20 20 19 18 18 18 18 18 19 20 22 23 24 24 25 25 25 25 25 25 24 24 24 24 24 24
9 10 10 10 11 11 12 13 13 13 13 12 12 11 11 10 10 10 9 9 8 8 8 9 9 9 9 9 9 9 10 11 10 10 12 12 12 10 9 9 10 10 10 11 13 14 14 14 14 14 14 15 16 17 17 18 19 19 19 19 19 18 18 17 17 17 18 19 21 22 23 24 24 25 25 24 24 24 24 24 24 24 24 24 25
9 10 10 10 10 11 12 13 13 13 13 13 13 12 11 10 10 9 9 8 8 8 8 8 9 9 8 7 7 8 10 12 12 11 12 13 12 11 9 8 9 11 11 12 14 15 15 15 15 14 14 14 15 16 17 17 18 18 19 19 18 17 17 16 16 17 19 20 21 21 22 23 24 24 24 23 23 23 23 24 24 24 25 25 26
10 10 10 10 10 11 11 12 13 13 12 12 12 12 11 10 9 9 8 8 8 8 7 8 8 7 7 6 6 7 9 11 12 12 12 13 13 11 9 8 10 11 11 13 14 15 16 16 15 14 14 14 15 15 16 16 17 17 18 17 17 16 16 16 16 18 19 19 20 20 21 23 24 23 23 23 23 23 23 24 24 25 26 27 27
10 10 10 10 10 10 10 10 11 12 12 11 11 11 11 10 9 8 8 8 8 7 7 7 7 6 6 6 6 6 8 10 12 12 13 13 13 12 10 9 10 11 12 13 14 15 16 16 15 14 14 14 14 14 15 15 16 17 17 16 16 16 15 16 17 18 18 19 20 21 22 23 23 23 22 22 23 23 24 24 25 26 27 27 27
10 10 10 10 10 10 9 9 10 10 11 10 11 11 10 9 8 7 8 8 7 7 6 6 6 6 6 6 6 6 8 10 12 13 13 14 14 13 12 10 10 11 12 13 13 14 16 15 15 14 13 14 13 13 14 14 15 16 16 16 16 16 16 16 17 18 18 19 20 21 22 22 22 22 22 23 23 24 24 25 25 26 26 26 26
10 9 9 10 10 10 9 9 9 9 9 10 10 10 9 8 7 7 7 7 7 7 6 6 6 6 6 6 7 7 8 10 13 13 13 14 15 14 13 11 11 11 12 12 13 13 14 14 14 13 13 13 13 12 13 14 15 16 16 16 16 15 15 15 16 17 18 19 20 20 21 21 22 22 22 23 23 24 24 24 25 25 25 25 25
10 9 9 9 9 10 9 8 8 8 9 9 9 9 8 8 7 6 7 6 6 6 6 6 6 6 7 8 8 8 10 11 13 14 14 14 15 15 14 12 11 11 12 12 13 13 13 13 12 12 12 11 11 12 12 14 15 15 15 15 15 14 13 13 15 16 17 18 19 20 21 21 22 22 22 22 23 23 23 24 24 24 25 25 26
10 10 9 9 8 8 9 8 7 7 8 8 8 8 8 7 7 6 6 6 5 5 6 6 6 6 8 10 9 9 10 12 13 14 14 14 14 15 15 13 12 12 12 12 13 13 13 12 11 11 11 10 10 11 12 14 14 14 14 14 13 12 11 12 13 15 16 17 19 20 21 22 22 22 22 22 22 22 23 24 24 25 26 27 28
11 10 10 9 8 7 8 8 7 7 8 8 8 8 8 7 6 5 5 5 5 5 6 6 6 7 9 10 10 9 10 12 12 14 15 15 14 15 15 15 13 12 13 13 13 12 12 11 10 10 10 10 10 11 13 13 13 13 12 12 11 10 11 11 13 14 16 18 19 21 21 21 21 21 21 21 22 23 24 25 25 26 27 28 29
12 11 10 9 8 7 7 7 8 8 8 8 9 9 8 7 6 5 5 5 5 6 6 7 7 7 9 10 10 10 10 11 12 14 15 15 14 14 14 15 15 14 13 13 12 12 11 10 10 9 9 10 10 12 13 14 14 13 12 11 11 11 11 12 13 15 17 18 20 21 21 20 20 20 21 22 23 24 24 25 26 27 28 29 30
12 11 10 9 8 7 8 8 8 9 9 9 9 9 9 8 7 6 5 5 6 6 7 7 7 7 7 8 10 10 10 11 13 14 15 15 15 14 13 13 15 15 14 13 13 12 11 10 9 9 9 9 10 12 14 14 15 15 14 13 12 13 13 13 15 16 17 18 19 19 19 19 19 20 21 23 23 24 25 26 27 28 29 30 31
11 11 10 9 8 8 8 9 9 10 10 10 10 10 10 9 8 7 6 6 6 6 6 6 6 6 6 7 9 11 11 11 12 13 15 15 15 15 13 12 13 14 13 13 12 12 11 10 9 8 8 9 11 12 13 13 14 14 14 14 14 13 13 14 15 16 16 17 17 17 17 17 19 21 22 23 24 25 26 27 28 29 29 30 31
11 11 11 10 9 9 9 10 10 10 11 11 11 11 11 10 9 8 7 6 6 6 5 5 5 5 6 7 9 11 11 11 11 13 14 15 15 14 13 12 11 11 11 10 10 10 9 9 8 8 8 9 10 10 11 11 12 13 13 14 14 12 11 13 14 15 15 15 15 15 16 17 19 21 22 24 25 26 27 28 29 29 30 31 31
12 12 11 11 10 10 10 10 10 11 12 12 13 12 12 10 9 8 7 6 6 5 5 4 3 4 6 7 8 10 11 11 11 13 14 15 15 15 14 12 10 9 9 8 9 9 8 8 7 7 7 7 8 8 8 10 11 12 12 13 13 11 9 10 12 13 14 14 14 14 15 17 19 21 23 25 26 27 28 28 29 29 30 30 31
12 12 12 11 10 10 10 10 11 11 13 14 14 13 12 11 9 8 7 7 6 5 5 4 3 4 5 6 7 9 10 11 11 12 14 15 16 15 14 13 11 9 8 8 8 8 7 7 6 6 6 5 5 5 6 8 9 10 9 10 11 11 10 9 10 11 12 12 13 14 15 18 20 21 23 25 25 26 27 28 28 29 29 30 31
13 13 12 11 11 11 11 11 11 12 14 15 15 14 13 11 10 9 8 7 7 6 5 5 4 4 4 5 6 8 9 11 11 12 13 14 15 15 14 13 12 10 8 7 7 6 6 6 5 4 4 3 2 2 4 6 7 7 7 7 9 11 11 9 9 9 11 12 13 14 16 18 20 21 23 24 25 26 27 27 28 29 29 30 30
15 14 14 13 12 12 12 11 11 13 14 15 14 14 13 12 11 10 9 8 7 6 6 5 5 4 4 4 5 6 8 10 11 11 12 13 14 14 13 12 12 10 8 7 6 5 5 5 5 4 3 3 2 1 2 4 5 5 5 6 8 10 10 10 10 9 9 11 13 15 16 18 20 21 23 24 25 26 27 28 28 29 29 30 30
16 15 15 14 13 12 12 11 11 12 14 15 14 14 14 13 12 11 10 9 8 7 6 5 5 5 4 4 4 5 7 9 10 11 11 12 12 13 13 12 12 11 9 8 7 6 5 5 4 4 4 4 3 2 2 2 3 1 3 6 8 9 10 11 11 10 9 10 13 15 16 18 20 22 23 24 25 26 27 27 28 28 28 29 30
16 15 15 14 13 13 12 11 11 11 13 14 14 14 14 14 13 12 11 10 8 7 6 5 5 5 4 4 4 4 5 6 8 10 11 12 12 12 12 12 12 12 11 9 8 7 7 6 5 5 5 5 4 4 3 0 2 1 3 5 7 9 11 12 12 11 10 10 12 14 16 18 20 22 23 24 25 25 26 27 27 27 27 28 29
16 16 15 14 13 13 12 11 11 11 13 14 15 15 15 15 14 13 12 11 9 8 7 5 5 4 4 4 3 3 3 4 6 8 10 11 11 12 12 12 12 12 12 11 10 9 8 7 6 6 6 6 6 5 5 2 2 2 3 5 7 9 11 13 12 11 10 10 11 13 15 18 20 22 23 24 24 24 25 25 26 26 27 28 28
17 16 16 15 14 13 12 11 11 12 13 15 16 16 16 16 16 14 13 12 10 9 8 6 5 4 4 3 3 3 3 2 3 5 7 9 10 11 11 12 12 13 12 12 11 10 9 9 8 8 7 7 7 7 6 4 3 3 4 7 8 9 10 12 11 10 10 11 12 13 15 17 20 21 23 24 24 24 24 24 24 25 26 27 28
17 17 16 15 14 13 13 12 12 13 14 15 16 17 18 18 17 16 14 13 11 10 9 8 6 5 4 3 3 3 3 3 3 3 4 6 8 10 11 12 12 12 13 13 12 11 11 10 10 9 9 8 8 9 9 6 5 5 7 8 9 9 10 12 11 10 10 11 12 14 15 17 19 21 22 24 24 24 24 23 24 24 26 27 28
18 18 17 16 14 14 14 13 13 13 14 15 16 17 18 18 18 17 16 14 12 11 9 8 8 6 5 4 3 3 3 3 4 4 5 5 6 7 10 11 12 13 13 13 13 13 13 12 11 11 10 10 10 10 11 9 7 7 8 10 9 9 10 11 11 11 11 12 13 14 15 16 18 20 22 23 25 26 25 24 24 24 25 26 27
20 19 18 17 16 15 15 15 14 14 14 15 16 16 17 17 17 17 16 15 13 12 10 9 8 8 7 6 4 4 3 3 4 5 5 6 7 7 7 9 11 12 14 14 14 14 14 13 12 12 12 12 12 12 12 12 10 8 9 12 11 10 11 12 12 12 11 11 14 15 15 16 17 19 21 23 25 26 27 26 24 24 24 25 26
22 21 20 19 18 18 17 16 16 15 14 14 15 15 15 16 17 17 17 16 15 14 12 10 9 8 8 7 6 5 4 4 4 4 5 7 7 8 8 9 9 11 13 14 15 15 15 14 14 14 14 14 14 14 14 14 12 10 11 13 13 11 11 12 13 14 13 12 13 15 17 18 19 20 22 23 24 26 27 27 26 24 24 25 26
23 23 22 21 21 20 19 18 18 17 15 14 14 14 15 16 17 17 17 17 17 16 14 12 10 9 8 8 7 7 6 5 4 5 5 6 7 8 9 10 10 11 12 13 14 15 16 16 16 15 15 16 16 16 15 15 13 12 13 15 15 13 12 13 14 16 18 17 16 18 20 21 22 23 24 24 24 26 27 28 27 26 25 25 25
24 24 24 24 23 21 20 20 19 18 16 15 14 14 15 16 17 18 18 18 18 17 16 14 13 11 10 9 8 8 7 7 6 6 6 6 7 9 10 10 11 12 13 13 14 16 17 17 18 17 17 17 18 17 17 16 14 13 14 16 16 15 14 13 14 16 20 20 20 21 23 24 25 25 26 26 26 26 28 29 29 27 25 25 25
26 25 25 25 24 22 22 21 20 19 18 17 17 16 17 17 18 19 19 18 18 17 16 16 15 14 13 12 10 9 9 9 8 8 8 7 8 9 10 10 11 13 14 15 15 17 18 18 19 19 18 20 21 20 18 16 14 14 16 16 16 16 15 15 15 15 18 21 22 24 25 27 28 29 29 28 27 27 28 30 30 29 27 26 26
28 27 26 25 24 23 23 22 21 20 19 19 19 19 19 19 19 19 19 19 19 18 18 17 16 16 16 14 13 12 11 11 11 10 10 9 9 10 10 11 12 13 14 16 17 17 18 18 21 21 20 22 24 23 20 17 15 16 17 17 17 17 16 17 16 16 17 20 23 25 27 29 30 31 31 30 29 29 29 30 31 32 30 28 28
30 29 27 25 25 24 24 23 22 21 21 21 21 21 21 21 21 21 20 20 20 19 18 18 18 18 18 17 16 14 14 14 14 13 12 12 11 11 11 11 12 13 14 16 18 19 19 19 21 22 23 24 26 26 23 20 17 18 19 18 18 17 17 18 18 17 18 21 23 25 27 29 30 30 31 31 31 30 31 32 32 33 32 30 29
32 31 29 28 27 26 25 25 24 23 22 23 23 23 23 23 22 22 22 21 21 20 19 19 19 19 19 19 18 17 17 17 16 15 15 14 14 13 12 12 12 13 15 16 18 20 21 21 21 23 25 27 28 28 26 23 21 20 20 20 20 19 18 18 18 18 19 21 23 25 26 28 29 30 31 32 32 32 33 33 33 33 33 32 30
34 33 32 31 30 29 28 27 26 25 25 24 25 24 24 24 24 23 23 22 22 21 20 20 20 20 21 21 20 20 20 20 19 18 18 17 16 15 14 13 13 14 15 17 19 21 23 23 22 24 26 27 28 28 28 26 25 23 22 22 22 20 19 19 19 19 19 22 24 25 26 27 28 29 30 32 33 33 34 35 35 34 34 33 31
35 34 34 34 33 32 31 31 30 28 27 27 27 26 25 25 25 24 23 23 23 22 22 22 21 22 22 23 22 23 23 23 22 22 21 20 18 16 16 16 16 16 16 17 19 22 24 24 24 25 27 27 27 28 28 28 28 27 25 25 24 23 21 21 21 20 20 22 25 26 26 28 29 30 31 32 34 35 36 37 36 36 35 34 33
35 36 36 36 35 35 34 33 32 30 30 30 30 29 27 27 26 24 23 23 23 23 23 23 23 24 24 25 24 25 25 25 25 25 24 23 21 18 17 17 18 18 18 18 20 22 24 25 26 26 27 27 27 27 28 29 30 30 29 28 27 26 24 23 23 23 22 24 25 27 27 29 30 32 33 34 35 37 38 39 38 38 36 36 35
35 36 36 36 36 36 36 35 34 33 33 33 33 32 30 29 27 25 23 23 23 24 24 25 25 26 26 27 27 27 27 27 28 28 27 26 24 21 19 20 20 20 20 21 22 22 23 25 26 27 27 27 26 26 27 28 29 30 30 30 30 28 27 26 26 26 26 27 28 28 29 30 32 34 34 35 36 37 39 40 40 39 38 37 36
35 35 36 37 37 37 37 36 35 34 35 36 36 35 33 32 30 27 25 24 23 23 24 26 26 27 27 28 29 28 28 29 30 31 30 28 26 24 23 22 22 21 22 24 24 24 23 24 24 25 26 26 25 25 26 27 27 28 29 30 30 30 28 28 28 28 28 29 29 29 29 30 32 34 35 35 35 37 39 41 40 39 38 37 36
35 36 37 38 37 37 37 37 36 36 36 37 37 36 35 34 32 30 28 26 25 24 25 26 27 27 28 29 29 29 30 31 32 33 32 30 28 27 27 25 22 23 27 28 26 25 24 23 23 24 25 25 25 25 25 25 25 25 26 27 28 29 29 29 29 29 29 29 29 29 29 30 32 35 36 37 37 38 39 40 41 39 38 37 36
Wind_Direction
93 92 92 93 94 95 95 93 89 85 83 84 86 85 84 84 84 84 84 85 88 91 96 101 103 103 102 100 99 96 92 88 86 87 89 91 94 96 97 99 101 102 104 105 105 106 106 107 107 106 104 101 99 98 97 96 94 92 91 90 90 91 92 92 89 85 79 71 64 58 53 51 52 54 55 53 50 48 46 43 39 37 35 34 34
92 90 91 93 94 96 97 96 94 91 89 89 90 91 90 88 87 86 85 85 86 88 92 97 103 106 106 104 102 100 97 95 95 96 97 98 100 100 101 103 105 107 108 108 108 108 108 108 107 105 104 103 100 97 95 93 91 89 88 88 89 90 90 88 84 79 71 64 59 55 52 52 54 56 54 52 50 48 45 41 38 36 34 34 33
93 91 92 94 97 99 101 102 100 98 96 95 95 94 95 94 92 91 90 89 89 89 91 94 99 105 107 107 105 103 101 101 103 104 104 104 104 104 105 107 109 111 111 110 110 109 109 108 107 105 104 102 99 94 91 89 88 87 87 88 89 88 86 82 77 71 64 59 57 55 54 56 57 56 54 52 50 46 43 39 37 34 32 32 30
95 92 93 96 101 104 106 108 106 104 103 101 99 96 96 97 97 96 94 94 93 93 94 95 98 102 105 106 105 103 102 103 105 106 105 105 105 106 107 109 111 112 112 112 112 111 110 107 105 104 102 99 95 91 88 86 86 87 88 88 87 85 81 76 70 64 61 59 58 58 59 59 58 55 53 51 47 43 40 36 34 31 29 27 25
99 95 96 99 105 109 111 112 112 111 108 104 102 102 101 101 100 99 97 96 95 95 95 96 98 100 102 103 103 102 102 103 104 104 104 104 104 106 108 110 112 113 113 113 112 110 107 103 101 99 98 95 91 88 86 85 86 87 87 86 84 81 77 72 67 63 62 61 61 61 61 59 57 54 51 47 44 41 38 34 31 27 24 21 19
104 100 99 103 109 115 117 118 118 116 112 109 109 107 104 102 100 98 96 94 95 97 98 98 98 99 101 102 102 103 104 104 104 104 104 104 106 108 109 111 113 113 113 112 110 106 102 99 97 95 94 91 89 87 85 84 84 85 85 84 81 77 73 70 67 65 65 64 64 64 61 58 55 51 48 45 43 39 35 31 28 24 21 19 17
109 105 102 106 113 118 122 124 123 121 119 117 114 109 105 103 100 97 95 94 95 97 99 99 98 98 100 101 102 104 107 107 107 107 107 108 110 111 112 113 113 113 112 110 107 103 99 97 95 93 91 90 87 85 83 84 84 85 85 82 79 75 72 70 68 67 67 67 66 64 60 56 52 49 47 45 41 36 31 28 25 22 20 20 19
110 106 105 109 116 121 124 126 125 124 123 120 115 110 106 101 97 95 95 96 96 96 96 97 98 97 97 98 101 103 106 107 108 109 111 113 114 114 114 114 114 114 112 108 104 101 99 98 95 93 91 88 86 85 85 85 85 85 83 81 78 76 73 70 69 69 68 68 65 62 58 54 51 49 46 42 37 32 28 25 23 22 21 20 20
112 107 108 112 117 122 125 125 124 125 126 123 119 114 108 103 99 96 96 97 96 95 93 91 93 94 94 94 96 99 101 103 106 108 112 115 116 116 116 116 116 115 112 108 104 102 100 98 94 91 88 86 86 87 87 86 84 83 82 80 78 76 74 72 71 70 69 67 63 60 56 53 50 46 42 37 33 30 27 25 24 23 23 22 21
115 110 110 113 119 122 123 124 128 131 133 131 127 120 114 111 107 102 99 97 96 95 92 90 89 90 91 90 91 92 94 97 101 103 107 110 112 113 112 113 112 109 107 105 104 103 100 98 95 91 90 91 91 91 90 87 85 83 82 81 78 76 74 73 72 70 67 64 61 57 53 49 45 41 37 33 30 29 27 27 25 24 24 24 24
117 115 114 118 121 121 120 122 128 133 135 135 131 125 120 119 116 110 104 99 95 93 92 92 92 92 91 90 89 89 88 90 94 97 99 101 103 105 105 104 102 101 101 101 102 101 100 98 96 95 96 97 98 96 94 91 88 85 82 79 77 75 74 73 71 69 65 62 58 53 49 44 39 36 33 31 30 29 28 27 25 24 24 24 25
124 125 124 124 121 118 116 116 120 125 130 133 133 130 126 124 122 116 109 103 98 92 90 91 93 95 96 94 93 91 90 92 93 93 94 96 98 99 101 101 100 101 101 100 100 100 98 97 96 97 97 99 99 99 96 92 87 83 80 78 77 76 75 73 70 67 63 58 53 48 43 39 36 34 33 32 31 29 27 26 24 23 23 22 22
131 132 129 126 119 112 109 108 111 115 122 127 130 131 128 126 125 122 116 108 101 95 90 90 92 93 96 97 94 92 96 99 97 96 98 99 96 95 98 101 103 105 105 104 103 100 98 97 97 98 98 98 97 95 91 87 84 81 79 78 77 75 73 70 67 63 58 53 48 44 40 37 35 34 33 32 30 28 26 24 23 22 21 19 19
133 132 130 126 118 110 105 104 106 109 116 122 125 129 128 127 126 125 121 113 104 97 92 93 94 92 91 94 97 99 103 101 102 106 106 102 96 94 97 101 105 106 107 109 107 102 101 101 101 102 102 99 95 92 89 87 85 83 81 78 75 73 70 66 63 58 53 49 45 42 39 36 34 32 31 29 29 27 26 25 24 22 20 19 17
136 135 134 127 119 112 107 105 105 107 112 116 120 124 125 124 123 123 124 120 114 105 98 96 96 91 85 86 94 103 105 105 110 115 111 106 101 98 100 104 107 106 109 113 110 108 107 107 107 107 105 102 98 96 93 89 86 84 81 79 75 71 67 63 59 55 50 46 43 39 36 33 31 30 29 29 29 29 28 26 25 23 22 21 19
141 141 139 132 125 120 114 110 108 107 108 111 114 116 117 118 118 120 122 121 116 107 99 97 96 92 86 82 85 93 101 109 116 118 113 110 109 105 104 109 111 110 115 117 113 113 113 112 111 110 107 105 102 97 92 88 86 84 82 79 75 70 66 61 56 51 47 43 40 36 33 31 30 30 30 31 32 31 30 28 26 25 24 23 21
145 147 145 138 132 126 118 114 112 109 108 109 111 111 112 115 115 117 120 119 113 105 100 98 99 98 91 85 83 85 96 106 114 119 118 114 113 112 112 114 113 115 121 120 117 117 117 116 114 111 109 106 101 95 90 88 86 83 80 77 74 69 63 57 51 47 44 41 38 35 33 32 32 32 33 33 33 32 30 28 27 25 24 23 22
151 155 151 143 138 129 120 116 114 113 113 112 112 111 111 113 113 115 118 120 115 108 103 101 101 100 90 85 85 89 97 104 112 119 119 117 116 114 113 112 115 120 124 121 118 119 119 118 116 114 112 106 100 95 92 89 86 82 79 76 71 66 60 53 48 46 43 41 38 35 34 34 34 34 34 33 32 31 29 29 28 26 25 25 23
158 160 155 147 141 133 125 121 119 118 118 117 116 114 113 112 110 109 112 117 118 112 109 107 104 100 92 88 90 97 105 110 115 121 123 121 118 115 113 113 120 123 122 119 117 119 118 117 117 115 112 105 100 95 90 87 84 81 78 74 68 62 57 52 49 46 43 40 37 35 35 36 35 34 33 32 31 30 29 29 28 27 26 26 25
161 161 158 152 145 138 131 127 123 119 117 118 118 115 111 109 106 103 104 109 113 113 115 115 110 103 99 100 103 107 113 117 121 126 129 125 119 117 117 119 125 123 119 117 115 114 113 113 114 111 107 102 98 93 88 85 82 80 77 72 66 61 57 54 50 45 41 38 36 36 37 37 36 34 33 31 30 29 29 29 29 28 27 27 27
164 163 164 161 153 146 138 131 125 120 117 118 118 115 110 106 101 99 100 103 109 116 119 116 113 109 108 110 113 114 117 122 126 128 129 126 121 120 120 124 127 123 118 115 112 109 108 108 108 105 102 99 95 91 86 82 80 78 74 69 64 60 58 53 45 40 38 37 37 38 38 37 35 34 32 31 31 31 31 31 30 29 29 29 28
171 170 172 169 161 151 142 134 130 125 121 120 119 116 114 110 104 100 102 105 113 118 117 114 115 116 114 113 114 117 120 125 128 128 127 126 122 121 122 125 127 122 117 113 111 110 110 110 108 105 102 99 93 88 84 81 79 74 69 64 59 58 55 47 40 39 40 39 38 38 37 35 34 33 32 32 32 32 32 32 31 31 30 30 29
179 180 181 177 170 159 146 138 134 127 123 121 120 119 119 118 113 112 111 112 118 119 114 115 120 120 117 115 115 117 120 125 129 130 129 127 124 122 123 126 125 120 116 113 112 113 114 113 110 106 103 97 89 83 80 77 72 66 61 55 49 51 51 44 41 42 41 39 38 36 35 33 32 32 32 33 33 33 33 32 31 31 30 29 29
185 187 189 184 177 165 151 143 135 130 126 123 122 124 128 127 123 121 117 115 121 121 116 120 126 125 123 120 119 120 122 126 131 134 132 130 128 126 125 127 125 121 118 118 118 119 118 115 110 106 101 94 87 81 77 72 67 64 60 53 49 52 53 47 45 43 40 38 37 35 33 31 31 31 32 33 34 33 32 31 31 30 29 28 28
190 192 193 189 181 166 155 148 139 133 131 129 130 133 134 131 128 125 119 117 121 120 118 124 128 126 122 121 122 126 127 127 132 138 137 134 133 133 132 130 126 125 125 125 125 125 122 119 113 106 100 94 88 82 78 74 69 65 62 57 54 57 55 49 45 42 38 36 35 34 32 30 30 31 32 33 33 32 31 30 29 28 28 27 26
195 197 197 191 182 169 159 152 143 139 138 137 139 140 139 134 132 129 123 122 120 117 118 121 121 118 116 120 126 130 131 130 134 140 142 140 139 139 138 132 128 128 130 130 130 128 127 126 120 111 105 99 93 87 84 78 69 63 59 55 53 56 53 47 43 39 35 33 33 32 30 30 31 31 31 31 30 30 29 28 27 26 25 25 25
198 201 201 194 184 173 162 154 148 145 144 144 145 144 141 138 136 131 126 123 119 117 118 118 115 115 116 119 126 131 134 135 137 143 148 147 144 143 141 136 131 129 129 128 127 127 128 128 125 119 112 104 99 93 89 81 69 62 57 51 48 49 48 43 39 35 31 29 29 29 28 29 30 30 29 29 27 26 26 25 24 23 23 23 22
200 202 203 197 187 176 164 156 153 151 150 150 149 147 144 144 139 132 126 124 122 123 122 115 109 109 111 114 120 130 139 142 143 147 153 154 149 148 145 141 138 132 127 125 124 125 128 129 130 127 120 111 103 94 86 78 67 58 52 47 43 40 38 37 34 32 28 23 23 24 25 28 29 28 27 26 24 23 22 21 21 21 21 21 20
200 203 203 199 189 178 167 160 158 157 157 156 155 153 151 148 142 134 129 126 124 125 120 108 94 88 96 108 119 132 142 147 149 153 157 158 155 154 152 150 148 144 139 135 132 133 133 137 141 138 130 123 114 100 89 79 66 54 45 40 37 33 28 22 21 24 23 17 15 18 23 26 26 25 24 22 21 20 18 17 18 18 19 19 18
197 201 202 199 190 180 172 166 163 163 163 162 161 158 154 151 145 138 133 129 124 121 115 105 94 83 85 102 119 134 144 151 158 162 162 162 161 160 158 155 155 156 155 150 145 142 144 150 157 158 153 150 146 120 93 83 71 53 35 23 24 25 18 6 0 7 13 10 8 13 20 23 23 21 20 19 17 16 14 14 15 15 16 16 16
195 199 201 199 190 183 177 172 168 167 168 167 165 161 158 153 149 143 137 134 130 124 119 111 103 95 91 95 110 132 147 157 165 167 167 168 168 168 167 163 163 166 169 168 163 155 158 169 176 179 185 199 220 246 70 81 78 56 20 1 10 15 5 352 343 345 357 1 3 10 15 18 19 18 17 15 14 12 11 11 12 12 12 12 13
198 199 200 198 191 185 182 178 174 172 172 171 169 165 162 158 153 149 145 142 138 133 128 124 117 111 107 101 103 121 144 160 169 170 172 174 175 175 176 173 172 175 179 182 181 177 180 188 194 199 208 226 248 288 359 73 100 64 345 346 355 355 348 341 335 331 338 350 358 5 10 13 14 14 13 12 10 8 7 8 9 9 9 9 9
203 202 203 200 193 188 186 183 180 178 176 175 174 170 167 163 159 157 154 152 148 144 139 136 130 123 121 118 113 115 130 153 169 173 177 180 180 181 184 183 181 184 188 193 193 193 196 202 207 214 224 240 257 281 305 6 149 233 317 331 336 336 335 333 329 322 323 337 352 360 3 8 10 10 9 7 6 4 4 5 5 5 5 5 4
210 208 208 203 195 191 191 187 183 183 181 179 178 175 172 170 167 165 163 160 157 154 150 146 143 138 135 136 138 134 132 144 161 174 182 186 187 187 190 191 192 194 195 199 203 205 208 212 215 222 234 248 258 267 277 271 209 245 293 306 315 325 329 327 324 317 314 327 344 352 357 3 6 6 4 2 360 0 2 3 2 1 2 1 0
217 215 213 207 199 193 194 193 188 187 186 183 182 180 178 176 175 173 170 168 165 163 160 157 155 155 152 153 156 158 161 163 167 175 182 189 193 196 198 199 201 203 204 205 209 213 218 222 225 230 238 248 258 263 270 270 248 251 271 289 305 318 324 324 319 310 311 322 334 344 352 359 1 359 358 355 353 356 360 1 360 360 359 358 357
219 220 219 213 205 197 195 196 194 190 189 188 186 185 183 182 182 180 178 177 174 170 168 166 166 169 169 168 171 171 177 191 205 213 206 199 198 200 203 206 208 210 211 213 216 218 223 230 236 241 244 249 257 263 269 267 252 250 262 276 294 308 317 322 317 307 308 317 326 336 345 353 355 352 350 348 348 352 356 357 357 357 357 355 354
218 220 221 218 212 204 199 199 198 196 194 194 192 190 189 188 187 186 185 184 183 181 178 176 176 179 182 183 183 185 190 199 212 229 238 236 224 213 208 209 213 216 218 219 221 224 229 235 242 249 252 254 257 263 268 267 256 249 257 268 281 294 304 314 317 312 307 308 314 324 335 343 346 344 341 341 344 347 350 351 352 354 354 353 352
216 219 220 220 216 210 206 204 203 203 202 201 199 197 195 193 192 192 192 192 192 192 190 188 187 187 189 192 194 194 197 205 217 229 239 244 246 243 232 222 218 219 222 225 226 229 234 239 245 251 254 256 258 260 264 267 262 253 255 263 274 287 297 306 314 315 311 308 311 318 326 331 333 335 334 334 339 343 344 343 344 348 350 350 350
215 217 219 220 220 217 213 209 208 209 209 208 207 205 203 200 197 196 197 198 200 201 201 200 200 200 199 200 203 206 206 210 221 232 238 243 247 251 252 247 237 230 228 229 230 233 237 241 245 250 252 255 258 259 261 264 265 262 260 263 269 278 289 300 308 312 312 314 317 320 321 322 325 328 328 328 333 337 338 337 337 341 345 346 348
216 217 218 219 221 221 218 214 212 212 212 212 212 211 209 207 205 203 203 204 205 207 208 209 212 213 213 212 213 214 214 217 226 236 242 246 248 250 252 253 253 249 243 237 234 236 239 242 246 249 252 254 258 260 261 263 265 266 266 268 273 277 283 294 304 308 311 316 322 322 320 320 324 327 325 324 329 332 332 332 333 336 339 342 344
218 218 218 218 220 222 223 221 218 215 214 215 214 213 212 212 212 210 209 209 209 211 212 215 219 222 223 224 225 225 224 223 227 236 245 251 253 253 252 251 252 254 254 249 244 241 242 244 247 250 252 255 260 263 264 265 266 267 266 270 276 282 287 292 298 304 309 315 320 320 318 319 324 327 325 325 327 328 328 329 330 332 334 337 341
218 219 220 219 219 220 223 224 223 220 216 215 216 216 215 216 216 217 217 216 215 214 215 217 222 226 228 228 229 230 233 234 233 235 240 248 254 259 259 254 250 251 253 254 251 248 246 247 249 251 251 254 262 267 268 269 269 267 268 271 276 282 287 289 292 299 307 312 315 316 316 319 324 326 324 323 324 324 324 325 327 329 332 335 339
220 221 222 221 221 221 222 223 224 223 220 219 219 218 219 219 220 221 221 222 221 220 219 220 223 228 231 232 232 232 234 237 240 240 241 243 248 257 263 262 256 253 252 253 253 252 250 249 251 252 250 253 262 269 271 272 271 268 269 273 275 279 284 287 290 298 306 309 311 314 315 317 320 322 320 319 321 322 320 320 324 327 330 333 336
222 223 223 223 223 223 224 223 222 222 223 224 223 221 221 223 224 225 225 227 227 226 225 224 226 229 232 234 235 236 236 238 240 242 244 244 245 251 258 264 264 261 256 253 252 252 250 247 248 250 250 252 260 269 273 273 272 270 271 274 276 277 280 285 290 297 303 306 308 311 313 314 316 317 316 316 318 319 317 316 319 323 327 330 332
225 225 225 225 225 226 226 226 224 222 223 225 227 226 225 225 226 228 229 231 232 232 232 231 231 233 234 236 238 240 242 242 241 241 244 245 248 251 254 259 263 264 261 257 254 253 251 248 247 248 251 252 256 266 273 272 271 272 275 277 280 282 283 286 290 295 299 301 303 305 308 310 311 313 313 313 315 316 314 314 315 318 322 326 327
228 228 227 227 227 228 229 229 228 226 225 226 228 229 228 228 228 228 229 231 233 235 236 236 236 237 238 239 240 242 245 246 245 243 243 244 247 251 255 259 261 262 262 260 258 256 254 252 249 249 252 254 255 262 270 271 269 271 274 276 280 284 285 287 290 293 296 296 297 300 304 307 308 310 311 311 312 313 312 312 312 314 317 321 323
230 230 230 229 229 229 230 231 231 231 231 232 232 231 231 231 230 229 228 229 232 234 236 238 238 240 241 242 243 244 246 248 248 247 246 245 245 248 252 257 259 261 262 260 258 257 256 254 251 249 252 255 256 260 266 269 269 269 272 275 278 282 285 287 290 292 294 295 295 298 301 304 306 308 309 309 309 310 310 309 310 310 312 315 318
229 230 231 231 231 231 232 233 234 234 235 237 237 236 235 234 233 232 230 230 231 233 235 238 239 240 242 244 245 246 247 249 250 250 249 248 247 247 249 253 256 260 262 261 259 258 256 255 252 249 250 253 256 259 263 266 267 268 270 272 276 281 284 286 289 292 294 295 296 297 299 302 305 306 307 307 308 308 308 307 307 307 308 310 314
228 228 230 231 232 232 233 234 234 235 236 238 240 240 239 238 237 234 232 231 231 232 234 237 238 240 243 245 246 247 249 251 251 251 250 250 249 247 247 249 253 257 260 261 261 260 258 256 254 252 251 252 254 256 260 263 265 267 268 269 273 277 281 284 287 291 293 294 296 298 300 302 303 304 304 305 307 307 307 306 305 305 306 307 310
226 226 227 228 230 231 232 233 233 233 234 237 239 241 241 242 241 239 236 233 232 232 234 237 239 240 243 245 247 248 249 250 252 252 251 250 249 248 247 248 251 256 258 259 260 262 262 262 260 258 256 255 254 254 257 261 263 265 266 267 270 273 277 281 284 288 290 293 296 298 301 302 303 302 304 306 307 308 306 305 305 304 304 305 306
224 225 225 227 228 229 231 232 232 232 232 235 237 239 241 243 244 243 241 238 235 233 234 237 239 241 242 245 247 248 249 250 251 252 252 251 248 246 247 249 252 256 258 259 260 263 267 269 270 268 265 260 257 256 258 261 263 265 266 266 268 270 272 276 280 284 287 291 294 297 299 300 300 301 303 305 306 306 305 305 304 302 302 302 303
Height
5929 5929 5929 5929 5930 5930 5930 5930 5930 5930 5930 5930 5930 5929 5929 5929 5929 5929 5928 5928 5928 5928 5929 5929 5930 5930 5930 5930 5930 5930 5929 5928 5928 5929 5929 5930 5930 5930 5930 5931 5931 5931 5932 5932 5933 5933 5933 5933 5933 5933 5934 5934 5934 5933 5933 5933 5933 5933 5932 5932 5932 5932 5932 5931 5931 5931 5930 5930 5929 5928 5927 5926 5925 5924 5923 5922 5921 5919 5918 5916 5915 5913 5912 5911 5909
5930 5930 5930 5931 5931 5931 5931 5931 5932 5932 5932 5932 5931 5931 5931 5931 5931 5931 5930 5930 5930 5930 5930 5931 5931 5932 5932 5932 5932 5932 5931 5930 5931 5931 5932 5932 5932 5932 5932 5933 5933 5933 5934 5934 5935 5935 5935 5935 5935 5935 5935 5935 5935 5935 5934 5934 5934 5934 5934 5934 5934 5933 5933 5933 5932 5932 5931 5931 5930 5929 5928 5927 5926 5925 5924 5923 5921 5920 5918 5917 5915 5914 5913 5911 5910
5932 5932 5932 5932 5932 5932 5933 5933 5933 5933 5933 5933 5933 5933 5933 5933 5933 5933 5933 5933 5932 5932 5932 5933 5933 5934 5934 5934 5934 5934 5933 5932 5933 5934 5934 5934 5934 5934 5934 5935 5935 5935 5936 5936 5936 5936 5936 5936 5937 5937 5937 5937 5936 5936 5936 5936 5936 5935 5935 5935 5935 5935 5934 5934 5933 5933 5932 5931 5931 5930 5929 5928 5926 5925 5924 5923 5922 5920 5919 5918 5916 5914 5913 5912 5911
5934 5933 5933 5933 5933 5934 5934 5935 5935 5935 5935 5935 5935 5935 5935 5935 5935 5935 5935 5935 5935 5935 5934 5934 5935 5936 5936 5936 5936 5936 5935 5935 5935 5935 5936 5936 5936 5936 5936 5937 5937 5937 5938 5938 5938 5938 5938 5938 5938 5938 5938 5938 5937 5937 5937 5937 5937 5937 5937 5936 5936 5936 5935 5935 5934 5934 5933 5932 5931 5930 5929 5928 5927 5926 5925 5924 5922 5921 5920 5918 5917 5915 5914 5912 5911
5935 5935 5935 5934 5934 5935 5935 5936 5936 5936 5936 5936 5936 5937 5937 5937 5937 5937 5937 5937 5937 5937 5937 5937 5937 5938 5938 5938 5937 5937 5937 5937 5937 5937 5938 5938 5938 5938 5938 5938 5939 5939 5939 5939 5939 5939 5939 5939 5939 5939 5939 5939 5939 5939 5938 5938 5938 5938 5938 5938 5937 5937 5937 5936 5935 5935 5934 5933 5932 5931 5930 5929 5928 5927 5926 5925 5923 5922 5920 5919 5917 5916 5914 5913 5911
5936 5936 5936 5935 5935 5936 5936 5937 5937 5937 5937 5938 5938 5938 5939 5939 5939 5939 5939 5939 5939 5939 5939 5939 5939 5940 5940 5939 5939 5939 5940 5939 5939 5939 5940 5940 5940 5940 5940 5941 5941 5941 5941 5941 5941 5941 5941 5940 5940 5940 5940 5940 5940 5940 5940 5940 5939 5939 5939 5939 5939 5938 5938 5937 5936 5935 5934 5933 5933 5932 5931 5930 5929 5928 5927 5925 5924 5923 5921 5920 5918 5917 5915 5913 5912
5937 5938 5937 5937 5937 5937 5938 5938 5938 5938 5939 5939 5939 5939 5940 5940 5940 5940 5940 5941 5941 5941 5941 5941 5941 5942 5942 5941 5941 5942 5942 5942 5941 5941 5942 5942 5942 5942 5942 5943 5943 5943 5943 5942 5942 5942 5942 5942 5942 5942 5942 5942 5942 5941 5941 5941 5941 5941 5940 5940 5940 5939 5939 5938 5937 5936 5935 5934 5934 5933 5932 5931 5930 5929 5928 5926 5925 5923 5922 5920 5919 5917 5915 5914 5912
5938 5938 5938 5938 5938 5939 5939 5939 5939 5939 5940 5940 5941 5941 5941 5941 5941 5941 5942 5942 5943 5943 5943 5942 5942 5943 5943 5943 5943 5944 5944 5944 5943 5943 5944 5944 5944 5944 5944 5944 5944 5944 5944 5944 5944 5944 5943 5943 5943 5943 5943 5943 5943 5943 5942 5942 5942 5942 5942 5941 5941 5940 5939 5939 5938 5937 5936 5936 5935 5934 5933 5932 5931 5930 5929 5927 5926 5924 5922 5921 5919 5918 5916 5914 5913
5939 5939 5939 5939 5939 5940 5940 5940 5940 5940 5941 5941 5942 5942 5942 5942 5943 5943 5944 5944 5944 5945 5944 5944 5944 5944 5944 5945 5945 5945 5946 5946 5945 5945 5946 5946 5946 5946 5946 5946 5946 5946 5946 5945 5945 5945 5945 5944 5944 5944 5944 5944 5944 5944 5943 5943 5943 5943 5943 5942 5942 5941 5941 5940 5939 5939 5938 5937 5937 5936 5935 5933 5932 5931 5930 5928 5926 5925 5923 5921 5920 5918 5916 5914 5912
5940 5940 5940 5940 5941 5941 5941 5942 5942 5942 5942 5943 5943 5943 5943 5944 5944 5945 5945 5945 5945 5946 5946 5945 5945 5945 5945 5946 5946 5947 5947 5947 5947 5947 5947 5947 5947 5947 5947 5947 5947 5947 5947 5946 5946 5946 5946 5945 5945 5945 5945 5945 5945 5944 5944 5944 5944 5944 5944 5943 5943 5942 5942 5941 5941 5940 5939 5939 5938 5937 5935 5934 5933 5932 5930 5929 5927 5925 5924 5922 5920 5918 5917 5915 5913
5941 5941 5941 5941 5942 5942 5942 5943 5943 5943 5944 5944 5945 5945 5945 5946 5946 5946 5946 5946 5946 5947 5947 5947 5947 5947 5946 5947 5947 5947 5948 5948 5948 5948 5948 5949 5949 5948 5948 5948 5948 5947 5947 5946 5946 5946 5946 5946 5946 5946 5946 5946 5946 5946 5946 5945 5945 5945 5945 5945 5944 5944 5943 5943 5942 5941 5940 5939 5938 5937 5936 5935 5934 5932 5931 5929 5927 5926 5924 5922 5921 5919 5917 5915 5914
5942 5942 5942 5943 5943 5943 5943 5943 5944 5944 5944 5945 5945 5946 5946 5947 5948 5948 5948 5947 5948 5948 5948 5949 5949 5948 5948 5948 5948 5948 5949 5949 5949 5949 5949 5950 5950 5950 5949 5949 5948 5948 5947 5947 5947 5947 5947 5947 5947 5947 5947 5947 5947 5947 5947 5946 5946 5946 5946 5946 5945 5945 5944 5944 5943 5942 5941 5940 5939 5938 5937 5936 5934 5933 5931 5930 5928 5927 5925 5923 5921 5920 5918 5916 5915
5943 5943 5943 5944 5944 5944 5944 5944 5944 5944 5945 5945 5946 5947 5947 5948 5948 5949 5949 5949 5949 5949 5950 5950 5950 5950 5949 5949 5949 5949 5950 5950 5950 5950 5950 5950 5951 5951 5950 5950 5949 5949 5948 5948 5948 5947 5947 5948 5948 5948 5948 5948 5948 5948 5947 5947 5947 5947 5947 5947 5946 5946 5945 5945 5944 5943 5942 5941 5940 5939 5938 5937 5935 5934 5933 5931 5930 5928 5926 5924 5922 5921 5919 5917 5915
5943 5943 5944 5944 5945 5945 5945 5945 5945 5945 5946 5946 5947 5947 5948 5949 5949 5950 5950 5950 5950 5950 5951 5951 5951 5950 5950 5950 5950 5950 5951 5951 5951 5951 5951 5951 5951 5952 5952 5951 5951 5950 5950 5949 5949 5949 5949 5949 5949 5949 5949 5949 5949 5949 5948 5948 5948 5948 5948 5948 5948 5947 5947 5946 5945 5944 5943 5942 5941 5940 5939 5938 5937 5935 5934 5932 5931 5929 5927 5925 5923 5922 5920 5918 5916
5943 5943 5944 5945 5945 5946 5946 5946 5946 5946 5947 5947 5948 5948 5949 5950 5950 5950 5951 5951 5951 5952 5952 5952 5952 5951 5951 5950 5951 5952 5952 5952 5952 5952 5952 5952 5952 5953 5953 5953 5952 5952 5952 5951 5950 5950 5950 5951 5951 5951 5950 5950 5950 5950 5949 5949 5949 5949 5949 5949 5949 5948 5948 5947 5946 5945 5944 5943 5942 5941 5940 5939 5938 5936 5935 5933 5932 5930 5928 5926 5924 5923 5921 5919 5917
5943 5944 5945 5946 5946 5947 5947 5947 5947 5947 5948 5948 5949 5949 5950 5950 5951 5951 5952 5952 5952 5953 5953 5953 5952 5952 5951 5951 5951 5952 5953 5953 5953 5953 5953 5952 5953 5954 5954 5954 5954 5953 5953 5952 5951 5951 5951 5952 5952 5952 5952 5952 5951 5951 5951 5951 5951 5951 5950 5950 5950 5949 5949 5948 5947 5947 5946 5944 5943 5942 5941 5940 5939 5937 5936 5934 5933 5931 5929 5927 5925 5924 5922 5920 5917
5944 5945 5946 5947 5947 5948 5948 5948 5948 5948 5949 5949 5949 5950 5950 5951 5951 5952 5952 5953 5953 5953 5953 5954 5953 5953 5953 5952 5952 5953 5953 5953 5954 5954 5954 5953 5954 5954 5955 5956 5955 5955 5954 5954 5953 5953 5953 5953 5953 5953 5953 5953 5953 5953 5953 5953 5953 5952 5952 5951 5951 5950 5950 5949 5948 5948 5947 5946 5945 5943 5942 5941 5939 5938 5937 5935 5934 5932 5930 5928 5927 5924 5922 5920 5918
5945 5946 5947 5947 5948 5948 5948 5949 5949 5949 5950 5950 5950 5950 5951 5951 5952 5952 5953 5953 5953 5954 5954 5954 5954 5954 5954 5953 5953 5953 5954 5954 5954 5955 5955 5955 5955 5955 5956 5957 5956 5956 5956 5955 5955 5954 5954 5954 5954 5954 5955 5955 5954 5954 5954 5954 5954 5954 5953 5953 5952 5952 5951 5950 5949 5949 5948 5947 5945 5944 5943 5941 5940 5939 5938 5936 5935 5933 5932 5930 5928 5926 5923 5921 5919
5945 5946 5947 5948 5948 5949 5949 5950 5950 5950 5950 5951 5951 5951 5951 5952 5952 5953 5953 5953 5954 5954 5954 5954 5954 5954 5954 5954 5954 5954 5954 5954 5954 5955 5956 5956 5956 5956 5957 5958 5958 5957 5957 5957 5956 5956 5955 5955 5955 5956 5956 5956 5956 5956 5956 5956 5955 5955 5954 5954 5953 5953 5952 5951 5950 5949 5949 5947 5946 5945 5944 5942 5941 5940 5939 5937 5936 5934 5933 5931 5929 5927 5925 5923 5920
5946 5947 5947 5948 5949 5949 5950 5950 5951 5951 5951 5951 5951 5951 5952 5952 5952 5953 5953 5954 5954 5954 5955 5955 5954 5955 5955 5955 5955 5955 5955 5955 5955 5956 5957 5957 5957 5957 5957 5958 5959 5959 5959 5958 5958 5958 5957 5957 5957 5957 5957 5957 5957 5957 5957 5957 5957 5956 5956 5955 5955 5954 5953 5952 5951 5950 5949 5948 5947 5946 5945 5944 5942 5941 5940 5938 5937 5935 5934 5932 5930 5928 5926 5924 5922
5946 5947 5948 5948 5949 5950 5950 5951 5951 5952 5952 5952 5952 5952 5952 5952 5953 5953 5953 5954 5954 5955 5955 5955 5954 5955 5955 5956 5955 5955 5956 5956 5956 5957 5957 5958 5958 5958 5958 5959 5960 5960 5960 5960 5960 5959 5959 5959 5959 5958 5958 5958 5958 5958 5958 5958 5958 5957 5957 5956 5956 5955 5954 5953 5952 5951 5950 5949 5948 5947 5946 5944 5943 5942 5941 5939 5938 5937 5935 5933 5931 5929 5927 5925 5923
5946 5947 5948 5949 5950 5950 5951 5951 5952 5952 5952 5952 5952 5952 5952 5953 5953 5953 5954 5954 5955 5955 5955 5955 5955 5955 5956 5956 5956 5956 5956 5957 5957 5958 5958 5959 5959 5959 5959 5960 5961 5961 5961 5961 5961 5961 5960 5960 5960 5960 5960 5960 5959 5959 5959 5959 5959 5958 5958 5957 5957 5956 5955 5954 5953 5952 5951 5950 5949 5948 5946 5945 5944 5943 5942 5941 5939 5938 5936 5934 5932 5930 5928 5926 5923
5947 5948 5948 5949 5950 5950 5951 5951 5952 5952 5952 5952 5952 5952 5953 5953 5954 5954 5954 5955 5955 5955 5955 5955 5955 5956 5956 5957 5957 5957 5957 5957 5958 5958 5959 5960 5960 5960 5960 5961 5962 5962 5962 5962 5962 5962 5961 5961 5961 5961 5961 5961 5960 5960 5960 5960 5960 5959 5959 5958 5957 5957 5956 5955 5953 5952 5951 5950 5949 5948 5947 5946 5945 5944 5943 5942 5940 5938 5937 5935 5933 5931 5929 5926 5924
5947 5948 5948 5949 5950 5950 5951 5952 5952 5952 5953 5953 5953 5953 5954 5954 5954 5955 5955 5955 5956 5956 5956 5956 5956 5956 5957 5957 5957 5957 5958 5958 5958 5959 5960 5960 5961 5962 5962 5962 5962 5962 5963 5963 5963 5963 5963 5962 5962 5962 5962 5961 5961 5961 5961 5961 5960 5960 5959 5959 5958 5957 5956 5955 5954 5953 5952 5951 5950 5949 5949 5948 5947 5945 5944 5942 5941 5939 5938 5936 5934 5932 5930 5927 5925
5946 5947 5948 5949 5950 5950 5951 5952 5952 5953 5953 5953 5954 5954 5954 5954 5955 5955 5955 5956 5956 5956 5956 5957 5957 5957 5958 5958 5958 5958 5958 5959 5959 5960 5961 5961 5962 5963 5964 5964 5963 5963 5963 5963 5964 5964 5963 5963 5963 5963 5962 5962 5962 5962 5962 5962 5961 5961 5960 5960 5959 5958 5957 5956 5955 5954 5953 5952 5951 5951 5950 5949 5948 5946 5945 5943 5942 5940 5938 5936 5934 5933 5930 5928 5926
5946 5947 5948 5949 5950 5951 5952 5952 5953 5953 5953 5954 5954 5955 5955 5955 5955 5956 5956 5956 5956 5957 5957 5957 5957 5958 5958 5958 5959 5959 5959 5959 5960 5960 5961 5962 5963 5964 5965 5965 5964 5964 5964 5964 5964 5964 5964 5964 5964 5964 5963 5963 5963 5963 5963 5962 5962 5961 5961 5960 5960 5959 5958 5957 5956 5955 5954 5953 5953 5952 5951 5950 5949 5947 5946 5944 5943 5941 5939 5937 5935 5933 5931 5929 5927
5946 5947 5948 5949 5950 5951 5952 5953 5953 5953 5954 5954 5955 5955 5956 5956 5956 5956 5956 5957 5957 5957 5957 5958 5958 5958 5959 5959 5959 5959 5959 5960 5960 5961 5962 5963 5963 5964 5965 5966 5966 5965 5965 5965 5965 5964 5964 5964 5964 5964 5964 5963 5963 5963 5963 5963 5963 5962 5962 5961 5960 5960 5959 5958 5957 5956 5955 5954 5954 5953 5952 5951 5949 5948 5946 5945 5943 5941 5939 5937 5935 5934 5931 5929 5927
5946 5947 5948 5949 5950 5951 5952 5953 5954 5954 5954 5955 5955 5956 5956 5956 5956 5956 5957 5957 5957 5958 5958 5958 5959 5959 5959 5959 5959 5960 5960 5960 5961 5962 5963 5963 5964 5965 5965 5966 5966 5966 5966 5966 5965 5965 5966 5965 5965 5965 5964 5964 5964 5964 5964 5964 5963 5963 5962 5961 5961 5960 5959 5958 5957 5956 5956 5955 5954 5954 5953 5951 5949 5948 5946 5945 5943 5941 5939 5938 5936 5934 5932 5930 5928
5946 5947 5948 5949 5950 5952 5952 5953 5954 5954 5955 5955 5956 5956 5957 5957 5957 5957 5957 5957 5958 5958 5959 5959 5959 5959 5959 5959 5960 5960 5960 5961 5961 5962 5963 5964 5964 5965 5966 5966 5966 5967 5967 5966 5966 5966 5966 5966 5966 5965 5964 5964 5964 5964 5964 5964 5964 5963 5963 5962 5962 5961 5959 5958 5957 5956 5956 5955 5955 5954 5953 5951 5950 5948 5946 5945 5943 5941 5940 5938 5936 5934 5932 5930 5928
5945 5947 5948 5949 5950 5952 5952 5953 5954 5955 5955 5956 5956 5956 5957 5957 5957 5957 5957 5958 5958 5959 5959 5959 5959 5959 5960 5960 5960 5960 5961 5961 5962 5962 5963 5964 5964 5965 5966 5966 5966 5967 5967 5967 5966 5966 5966 5966 5966 5965 5965 5964 5964 5964 5965 5965 5964 5964 5963 5962 5962 5960 5959 5958 5957 5957 5956 5955 5955 5954 5953 5951 5950 5948 5947 5945 5944 5942 5940 5939 5937 5935 5933 5931 5929
5945 5946 5947 5949 5950 5951 5952 5953 5954 5955 5955 5956 5956 5956 5956 5957 5957 5957 5957 5958 5959 5959 5959 5959 5960 5960 5960 5961 5961 5961 5961 5962 5962 5962 5963 5963 5964 5965 5965 5965 5966 5967 5967 5967 5967 5966 5966 5966 5966 5965 5965 5964 5964 5964 5964 5965 5964 5964 5963 5962 5961 5960 5959 5958 5957 5956 5956 5955 5955 5954 5953 5951 5950 5949 5947 5946 5944 5942 5941 5939 5937 5935 5933 5931 5929
5944 5945 5946 5948 5949 5951 5952 5953 5954 5955 5955 5955 5956 5956 5956 5956 5957 5957 5958 5958 5959 5959 5959 5960 5960 5960 5961 5961 5961 5962 5962 5962 5963 5963 5963 5963 5964 5964 5965 5965 5965 5966 5966 5967 5967 5966 5966 5966 5966 5965 5965 5964 5964 5964 5964 5964 5964 5964 5963 5962 5960 5960 5959 5958 5957 5956 5956 5955 5955 5954 5953 5952 5950 5949 5947 5946 5944 5943 5941 5939 5937 5935 5933 5931 5929
5943 5944 5946 5947 5949 5950 5951 5952 5953 5954 5955 5955 5955 5956 5956 5956 5957 5957 5958 5959 5959 5959 5960 5960 5960 5960 5961 5961 5962 5962 5962 5963 5963 5963 5963 5963 5964 5964 5964 5965 5965 5965 5966 5966 5966 5966 5966 5966 5966 5965 5965 5964 5964 5964 5964 5964 5964 5963 5962 5961 5960 5959 5958 5957 5956 5956 5955 5955 5955 5954 5953 5952 5951 5949 5948 5946 5945 5943 5941 5939 5937 5936 5934 5931 5929
5943 5944 5945 5946 5948 5949 5950 5951 5952 5953 5954 5954 5955 5956 5956 5956 5957 5957 5958 5959 5959 5959 5960 5960 5960 5961 5961 5961 5962 5962 5962 5963 5963 5963 5963 5963 5963 5964 5964 5964 5964 5965 5965 5965 5965 5965 5965 5965 5965 5965 5964 5964 5963 5963 5963 5964 5963 5962 5961 5960 5959 5959 5958 5956 5956 5955 5955 5955 5954 5954 5953 5952 5951 5950 5948 5947 5946 5944 5942 5940 5938 5936 5934 5932 5930
5942 5943 5944 5945 5947 5949 5950 5951 5951 5952 5953 5954 5954 5955 5956 5956 5957 5957 5958 5958 5959 5959 5960 5960 5960 5961 5961 5961 5962 5962 5962 5962 5963 5963 5963 5963 5963 5964 5964 5964 5964 5964 5964 5964 5964 5964 5964 5964 5964 5964 5964 5963 5963 5963 5963 5963 5962 5962 5960 5959 5959 5958 5957 5956 5955 5955 5955 5954 5954 5953 5953 5952 5951 5950 5949 5948 5946 5945 5943 5941 5939 5937 5934 5932 5930
5941 5942 5943 5944 5946 5947 5948 5949 5950 5951 5952 5952 5953 5954 5955 5955 5956 5957 5957 5958 5958 5959 5959 5960 5960 5960 5961 5961 5961 5962 5962 5962 5962 5962 5963 5963 5963 5963 5963 5963 5963 5963 5963 5964 5963 5963 5963 5963 5963 5963 5963 5963 5962 5962 5962 5962 5961 5961 5960 5959 5958 5958 5957 5955 5955 5955 5954 5954 5953 5953 5952 5951 5951 5950 5949 5948 5946 5945 5943 5941 5939 5937 5934 5932 5930
5939 5940 5942 5943 5945 5946 5947 5948 5949 5950 5950 5951 5952 5953 5953 5954 5955 5956 5956 5957 5958 5958 5958 5959 5959 5960 5960 5961 5961 5961 5962 5962 5962 5962 5962 5962 5962 5963 5963 5963 5963 5963 5963 5963 5963 5963 5963 5963 5963 5963 5962 5962 5962 5961 5961 5961 5960 5960 5959 5958 5958 5958 5957 5955 5954 5954 5954 5953 5952 5952 5952 5951 5951 5950 5949 5947 5946 5944 5943 5941 5939 5936 5934 5932 5930
5937 5938 5940 5941 5943 5944 5946 5947 5947 5948 5949 5950 5951 5951 5952 5953 5954 5955 5955 5956 5957 5957 5958 5958 5958 5959 5959 5960 5961 5961 5961 5962 5962 5962 5962 5961 5961 5962 5962 5962 5962 5962 5962 5962 5962 5962 5962 5962 5962 5962 5962 5961 5961 5960 5960 5959 5959 5959 5958 5957 5957 5957 5956 5955 5954 5953 5953 5953 5952 5951 5951 5950 5950 5950 5949 5946 5945 5944 5942 5941 5939 5936 5934 5932 5930
5935 5936 5938 5939 5941 5942 5944 5945 5946 5947 5948 5948 5949 5950 5951 5952 5953 5954 5954 5955 5956 5956 5957 5957 5957 5958 5958 5959 5960 5960 5961 5961 5961 5961 5961 5961 5961 5961 5961 5961 5961 5961 5961 5961 5961 5961 5961 5961 5961 5961 5961 5960 5960 5959 5959 5958 5958 5958 5957 5956 5956 5957 5956 5954 5953 5952 5952 5952 5951 5950 5949 5949 5949 5949 5948 5946 5944 5943 5941 5940 5938 5936 5934 5932 5930
5933 5934 5936 5937 5939 5940 5942 5943 5944 5945 5946 5947 5948 5949 5950 5951 5951 5952 5953 5954 5954 5955 5955 5956 5956 5957 5957 5958 5958 5959 5960 5960 5960 5960 5960 5960 5960 5960 5960 5960 5960 5960 5960 5960 5960 5960 5960 5960 5960 5960 5959 5959 5958 5958 5957 5957 5957 5957 5956 5956 5955 5956 5955 5954 5952 5951 5950 5949 5949 5949 5948 5948 5948 5948 5946 5944 5943 5942 5940 5939 5936 5935 5933 5931 5929
5931 5932 5933 5935 5936 5938 5939 5941 5942 5943 5944 5945 5946 5947 5948 5949 5950 5950 5951 5952 5952 5953 5954 5954 5955 5955 5956 5956 5957 5958 5958 5959 5959 5959 5959 5959 5959 5958 5958 5958 5958 5958 5958 5959 5959 5959 5959 5959 5959 5958 5958 5957 5956 5956 5956 5956 5956 5956 5955 5955 5955 5954 5954 5953 5952 5950 5949 5947 5947 5947 5947 5946 5946 5946 5944 5943 5942 5941 5939 5937 5935 5933 5932 5930 5928
5929 5930 5931 5933 5934 5936 5937 5938 5940 5941 5942 5943 5944 5944 5945 5946 5947 5948 5949 5950 5951 5951 5952 5952 5953 5953 5954 5954 5955 5956 5956 5957 5957 5958 5958 5958 5957 5957 5957 5957 5957 5957 5957 5957 5957 5957 5957 5958 5957 5957 5957 5956 5954 5954 5954 5955 5955 5955 5955 5954 5954 5953 5953 5952 5951 5950 5949 5947 5946 5946 5945 5944 5944 5944 5942 5941 5940 5939 5937 5935 5933 5932 5931 5929 5927
5926 5927 5929 5931 5933 5934 5935 5936 5937 5939 5940 5940 5941 5941 5942 5943 5944 5945 5947 5947 5948 5949 5950 5950 5951 5951 5952 5952 5952 5953 5954 5955 5955 5956 5956 5956 5956 5956 5955 5955 5955 5955 5955 5955 5955 5955 5956 5956 5955 5955 5955 5954 5953 5952 5952 5953 5954 5954 5954 5954 5954 5953 5951 5950 5950 5950 5949 5947 5946 5945 5944 5943 5943 5942 5940 5939 5938 5937 5935 5933 5932 5930 5929 5927 5926
5924 5925 5927 5929 5930 5931 5932 5933 5935 5936 5937 5937 5938 5938 5939 5940 5941 5942 5944 5945 5946 5947 5947 5948 5949 5949 5949 5950 5950 5950 5951 5952 5953 5953 5954 5954 5954 5954 5954 5954 5954 5953 5953 5953 5953 5953 5953 5954 5954 5953 5953 5952 5951 5950 5951 5952 5953 5953 5953 5953 5952 5951 5950 5949 5949 5949 5948 5946 5945 5944 5943 5942 5941 5940 5938 5937 5936 5935 5933 5931 5930 5929 5927 5926 5924
5921 5923 5925 5926 5927 5929 5930 5931 5932 5934 5934 5934 5935 5935 5936 5937 5938 5939 5941 5942 5943 5944 5945 5946 5946 5947 5947 5947 5948 5948 5948 5949 5950 5951 5951 5952 5952 5952 5952 5952 5952 5952 5951 5951 5951 5950 5950 5951 5951 5951 5951 5950 5950 5949 5949 5951 5952 5951 5951 5950 5950 5949 5949 5948 5947 5947 5946 5945 5944 5943 5941 5940 5939 5938 5936 5935 5934 5933 5931 5929 5928 5927 5926 5925 5923
5919 5921 5922 5923 5925 5926 5927 5928 5930 5931 5932 5932 5932 5932 5933 5934 5935 5936 5938 5939 5940 5942 5943 5943 5944 5944 5945 5945 5945 5945 5945 5946 5946 5947 5948 5949 5949 5950 5950 5950 5950 5950 5949 5949 5948 5948 5947 5948 5948 5948 5948 5948 5948 5948 5948 5949 5950 5950 5949 5948 5947 5947 5947 5946 5946 5946 5945 5943 5942 5941 5940 5938 5937 5936 5934 5932 5931 5930 5928 5927 5926 5925 5924 5923 5922
5916 5918 5919 5920 5921 5922 5924 5925 5927 5928 5929 5930 5930 5930 5931 5931 5932 5933 5935 5936 5938 5939 5940 5941 5942 5942 5942 5942 5942 5942 5942 5943 5943 5944 5945 5946 5947 5948 5948 5948 5948 5948 5947 5947 5946 5945 5945 5945 5945 5945 5945 5945 5946 5946 5946 5947 5947 5947 5947 5946 5945 5945 5945 5944 5944 5943 5943 5942 5940 5939 5938 5936 5935 5934 5932 5930 5929 5928 5926 5925 5923 5922 5922 5921 5919
5912 5913 5915 5917 5918 5919 5920 5922 5924 5926 5927 5927 5927 5928 5928 5929 5929 5931 5932 5934 5935 5936 5937 5938 5939 5939 5939 5939 5940 5939 5939 5940 5940 5940 5941 5942 5943 5945 5945 5945 5945 5945 5945 5944 5943 5943 5942 5942 5942 5942 5942 5942 5943 5944 5944 5944 5944 5944 5944 5944 5943 5943 5942 5942 5941 5941 5940 5939 5938 5937 5936 5934 5932 5931 5929 5928 5927 5925 5923 5922 5921 5920 5919 5918 5917
5907 5909 5911 5913 5914 5915 5917 5919 5921 5923 5924 5924 5924 5925 5926 5926 5927 5928 5930 5931 5932 5933 5934 5934 5935 5936 5936 5936 5936 5937 5937 5937 5937 5937 5937 5939 5940 5942 5942 5942 5942 5942 5941 5941 5940 5940 5940 5939 5939 5939 5939 5940 5941 5941 5941 5941 5941 5941 5941 5941 5940 5940 5940 5940 5939 5939 5938 5937 5936 5935 5934 5932 5929 5928 5927 5926 5925 5923 5920 5918 5918 5916 5916 5915 5914
5902 5904 5906 5907 5909 5911 5913 5915 5917 5919 5920 5920 5921 5922 5923 5924 5925 5926 5927 5928 5929 5930 5931 5931 5932 5932 5933 5933 5933 5934 5934 5934 5933 5933 5934 5935 5937 5938 5938 5939 5939 5939 5938 5936 5936 5937 5937 5937 5937 5937 5937 5938 5938 5939 5938 5938 5938 5938 5938 5938 5938 5938 5938 5938 5937 5936 5936 5934 5933 5932 5931 5930 5927 5925 5924 5923 5922 5921 5918 5915 5914 5913 5912 5912 5911
5898 5899 5901 5902 5905 5907 5909 5911 5912 5914 5915 5916 5917 5919 5920 5921 5922 5924 5924 5925 5926 5927 5928 5928 5928 5929 5929 5930 5930 5930 5931 5931 5930 5930 5930 5932 5933 5934 5934 5935 5936 5936 5933 5932 5933 5934 5934 5935 5935 5935 5936 5936 5936 5936 5935 5935 5936 5936 5936 5936 5936 5936 5936 5935 5935 5934 5933 5932 5931 5930 5929 5928 5925 5923 5921 5920 5919 5918 5916 5913 5911 5910 5909 5908 5907